• In Hungary
  • List of Countries
  • For 7 days
  • Water Temperature
  • Satellite Maps
  • Weather Map
  • News
  • Weather Widgets
  • user-avatar
    Login

    Hourly Weather Santiago

    Today, 23 August, Wednesday

    Time Temperature Precipitation Wind Pressure Humidity
    00:00 +26°C° 0 mm 1 mps 749 mmHg 92%
    01:00 +26°C° 0 mm 1 mps 748 mmHg 92%
    02:00 +26°C° 0 mm 1 mps 748 mmHg 92%
    03:00 +26°C° 0 mm 2 mps 748 mmHg 92%
    04:00 +26°C° 0 mm 2 mps 748 mmHg 92%
    05:00 +26°C° 0 mm 2 mps 748 mmHg 92%
    06:00 +26°C° 0 mm 2 mps 748 mmHg 92%
    07:00 +26°C° 0 mm 2 mps 748 mmHg 91%
    08:00 +28°C° 0.2 mm 2 mps 748 mmHg 85%
    09:00 +29°C° 0.2 mm 2 mps 749 mmHg 79%
    10:00 +31°C° 0.2 mm 2 mps 749 mmHg 73%
    11:00 +31°C° 1.7 mm 3 mps 749 mmHg 73%
    12:00 +33°C° 1.7 mm 3 mps 748 mmHg 72%
    13:00 +33°C° 1.7 mm 3 mps 748 mmHg 72%
    14:00 +31°C° 3.1 mm 3 mps 748 mmHg 76%
    15:00 +30°C° 3.1 mm 2 mps 747 mmHg 80%
    16:00 +29°C° 3.1 mm 2 mps 747 mmHg 83%
    17:00 +28°C° 2.2 mm 2 mps 747 mmHg 86%
    18:00 +28°C° 2.2 mm 2 mps 747 mmHg 89%
    19:00 +27°C° 2.2 mm 2 mps 747 mmHg 91%
    20:00 +27°C° 0.9 mm 2 mps 748 mmHg 92%
    21:00 +26°C° 0.9 mm 2 mps 748 mmHg 93%
    22:00 +26°C° 0.9 mm 2 mps 748 mmHg 94%
    23:00 +26°C° 0.4 mm 2 mps 748 mmHg 94%

    Tomorrow, 24 August, Thursday

    Time Temperature Precipitation Wind Pressure Humidity
    00:00 +26°C° 0.4 mm 2 mps 748 mmHg 94%
    01:00 +26°C° 0.4 mm 2 mps 748 mmHg 95%
    02:00 +26°C° 0.3 mm 2 mps 748 mmHg 95%
    03:00 +26°C° 0.3 mm 2 mps 747 mmHg 95%
    04:00 +25°C° 0.3 mm 2 mps 747 mmHg 96%
    05:00 +26°C° 0.3 mm 2 mps 747 mmHg 95%
    06:00 +26°C° 0.3 mm 2 mps 747 mmHg 95%
    07:00 +26°C° 0.3 mm 2 mps 748 mmHg 95%
    08:00 +27°C° 0.7 mm 2 mps 748 mmHg 92%
    09:00 +27°C° 0.7 mm 2 mps 748 mmHg 90%
    10:00 +28°C° 0.7 mm 2 mps 749 mmHg 87%
    11:00 +28°C° 1.9 mm 2 mps 749 mmHg 87%
    12:00 +28°C° 1.9 mm 2 mps 748 mmHg 87%
    13:00 +28°C° 1.9 mm 2 mps 748 mmHg 87%
    14:00 +28°C° 3.2 mm 2 mps 748 mmHg 89%
    15:00 +27°C° 3.2 mm 2 mps 747 mmHg 91%
    16:00 +27°C° 3.2 mm 2 mps 747 mmHg 93%
    17:00 +26°C° 2.5 mm 2 mps 747 mmHg 94%
    18:00 +26°C° 2.5 mm 2 mps 747 mmHg 95%
    19:00 +26°C° 2.5 mm 2 mps 748 mmHg 96%
    20:00 +26°C° 1 mm 2 mps 748 mmHg 96%
    21:00 +26°C° 1 mm 2 mps 749 mmHg 96%
    22:00 +25°C° 1 mm 2 mps 749 mmHg 96%
    23:00 +25°C° 0.6 mm 2 mps 749 mmHg 96%

    Day after tomorrow, 25 August, Friday

    Time Temperature Precipitation Wind Pressure Humidity
    00:00 +25°C° 0.6 mm 2 mps 749 mmHg 96%
    01:00 +25°C° 0.6 mm 2 mps 748 mmHg 96%
    02:00 +25°C° 0.4 mm 2 mps 748 mmHg 96%
    03:00 +25°C° 0.4 mm 1 mps 748 mmHg 96%
    04:00 +25°C° 0.4 mm 1 mps 748 mmHg 96%
    05:00 +25°C° 0.3 mm 1 mps 748 mmHg 95%
    06:00 +25°C° 0.3 mm 1 mps 748 mmHg 95%
    07:00 +25°C° 0.3 mm 1 mps 749 mmHg 94%
    08:00 +26°C° 0.2 mm 1 mps 749 mmHg 91%
    09:00 +27°C° 0.2 mm 1 mps 750 mmHg 87%
    10:00 +28°C° 0.2 mm 1 mps 751 mmHg 84%
    11:00 +28°C° 0.2 mm 1 mps 750 mmHg 83%
    12:00 +29°C° 0.2 mm 2 mps 750 mmHg 81%
    13:00 +29°C° 0.2 mm 2 mps 749 mmHg 80%
    14:00 +29°C° 0.3 mm 2 mps 749 mmHg 81%
    15:00 +29°C° 0.3 mm 2 mps 748 mmHg 82%
    16:00 +29°C° 0.3 mm 2 mps 748 mmHg 83%
    17:00 +28°C° 0.3 mm 2 mps 748 mmHg 86%
    18:00 +27°C° 0.3 mm 2 mps 748 mmHg 89%
    19:00 +26°C° 0.3 mm 1 mps 749 mmHg 92%
    20:00 +26°C° 0 mm 1 mps 749 mmHg 93%
    21:00 +26°C° 0 mm 1 mps 750 mmHg 94%
    22:00 +26°C° 0 mm 1 mps 750 mmHg 94%
    23:00 +26°C° 0.1 mm 1 mps 750 mmHg 95%

    26 August, Saturday

    Time Temperature Precipitation Wind Pressure Humidity
    00:00 +26°C° 0.1 mm 2 mps 750 mmHg 95%
    01:00 +26°C° 0.1 mm 2 mps 749 mmHg 95%
    02:00 +25°C° 0.5 mm 2 mps 749 mmHg 95%
    03:00 +25°C° 0.5 mm 2 mps 749 mmHg 95%
    04:00 +25°C° 0.5 mm 2 mps 748 mmHg 95%
    05:00 +25°C° 0.2 mm 1 mps 749 mmHg 94%
    06:00 +26°C° 0.2 mm 1 mps 749 mmHg 93%
    07:00 +26°C° 0.2 mm 1 mps 749 mmHg 93%
    08:00 +27°C° 0.3 mm 1 mps 750 mmHg 86%
    09:00 +29°C° 0.3 mm 1 mps 750 mmHg 79%
    10:00 +30°C° 0.3 mm 1 mps 750 mmHg 73%
    11:00 +31°C° 1.3 mm 1 mps 750 mmHg 71%
    12:00 +32°C° 1.3 mm 2 mps 749 mmHg 69%
    13:00 +32°C° 1.3 mm 2 mps 749 mmHg 67%
    14:00 +32°C° 2.6 mm 2 mps 748 mmHg 70%
    15:00 +31°C° 2.6 mm 2 mps 748 mmHg 73%
    16:00 +30°C° 2.6 mm 2 mps 747 mmHg 76%
    17:00 +29°C° 1.5 mm 2 mps 748 mmHg 80%
    18:00 +28°C° 1.5 mm 1 mps 748 mmHg 84%
    19:00 +27°C° 1.5 mm 1 mps 749 mmHg 87%
    20:00 +27°C° 0.1 mm 1 mps 749 mmHg 88%
    21:00 +27°C° 0.1 mm 1 mps 749 mmHg 88%
    22:00 +27°C° 0.1 mm 1 mps 750 mmHg 89%
    23:00 +26°C° 0 mm 1 mps 749 mmHg 89%

    27 August, Sunday

    Time Temperature Precipitation Wind Pressure Humidity
    00:00 +26°C° 0 mm 1 mps 749 mmHg 90%
    01:00 +26°C° 0 mm 1 mps 749 mmHg 90%
    02:00 +26°C° 0 mm 1 mps 748 mmHg 90%
    03:00 +26°C° 0 mm 1 mps 748 mmHg 90%
    04:00 +25°C° 0 mm 1 mps 748 mmHg 91%
    05:00 +26°C° 0 mm 1 mps 748 mmHg 91%
    06:00 +26°C° 0 mm 1 mps 748 mmHg 90%
    07:00 +26°C° 0 mm 1 mps 749 mmHg 90%
    08:00 +27°C° 0 mm 1 mps 749 mmHg 86%
    09:00 +28°C° 0 mm 1 mps 749 mmHg 82%
    10:00 +29°C° 0 mm 1 mps 750 mmHg 78%
    11:00 +30°C° 0.6 mm 1 mps 749 mmHg 76%
    12:00 +30°C° 0.6 mm 1 mps 749 mmHg 74%
    13:00 +31°C° 0.6 mm 1 mps 748 mmHg 73%
    14:00 +30°C° 1.6 mm 1 mps 748 mmHg 74%
    15:00 +30°C° 1.6 mm 1 mps 747 mmHg 76%
    16:00 +30°C° 1.6 mm 1 mps 747 mmHg 78%
    17:00 +29°C° 1.6 mm 1 mps 747 mmHg 82%
    18:00 +28°C° 1.6 mm 1 mps 748 mmHg 85%
    19:00 +27°C° 1.6 mm 1 mps 748 mmHg 89%
    20:00 +27°C° 0.5 mm 1 mps 748 mmHg 90%
    21:00 +27°C° 0.5 mm 1 mps 749 mmHg 90%
    22:00 +26°C° 0.5 mm 1 mps 749 mmHg 91%
    23:00 +26°C° 0.4 mm 1 mps 749 mmHg 92%

    28 August, Monday

    Time Temperature Precipitation Wind Pressure Humidity
    00:00 +26°C° 0.4 mm 1 mps 749 mmHg 93%
    01:00 +26°C° 0.4 mm 1 mps 748 mmHg 93%
    02:00 +26°C° 0.2 mm 1 mps 748 mmHg 94%
    03:00 +26°C° 0.2 mm 1 mps 748 mmHg 94%
    04:00 +26°C° 0.2 mm 1 mps 748 mmHg 94%
    05:00 +26°C° 0.1 mm 1 mps 748 mmHg 93%
    06:00 +26°C° 0.1 mm 1 mps 748 mmHg 93%
    07:00 +26°C° 0.1 mm 1 mps 749 mmHg 92%
    08:00 +27°C° 0.1 mm 1 mps 749 mmHg 86%
    09:00 +29°C° 0.1 mm 1 mps 749 mmHg 80%
    10:00 +30°C° 0.1 mm 1 mps 749 mmHg 75%
    11:00 +31°C° 0.5 mm 1 mps 749 mmHg 71%
    12:00 +32°C° 0.5 mm 1 mps 748 mmHg 68%
    13:00 +33°C° 0.5 mm 1 mps 748 mmHg 64%
    14:00 +32°C° 1.6 mm 1 mps 748 mmHg 68%
    15:00 +31°C° 1.6 mm 1 mps 747 mmHg 72%
    16:00 +30°C° 1.6 mm 1 mps 747 mmHg 75%
    17:00 +29°C° 1.5 mm 1 mps 747 mmHg 80%
    18:00 +28°C° 1.5 mm 1 mps 748 mmHg 84%
    19:00 +27°C° 1.5 mm 1 mps 748 mmHg 89%
    20:00 +27°C° 0.7 mm 1 mps 749 mmHg 90%
    21:00 +27°C° 0.7 mm 1 mps 749 mmHg 90%
    22:00 +26°C° 0.7 mm 1 mps 749 mmHg 91%
    23:00 +26°C° 0.1 mm 1 mps 749 mmHg 92%
    Show more